TimePST,TemperatureF,Dew PointF,Humidity,Sea Level PressureIn,VisibilityMPH,Wind Direction,Wind SpeedMPH,Gust SpeedMPH,PrecipitationIn,Events,Conditions,WindDirDegrees,DateUTC
12:53 AM,35.1,30.0,82,30.06,10.0,NNW,6.9,-,N/A,,Scattered Clouds,330,2013-03-08 08:53:00
1:53 AM,33.1,30.0,89,30.07,10.0,North,8.1,-,N/A,,Mostly Cloudy,360,2013-03-08 09:53:00
2:53 AM,34.0,30.0,85,30.06,10.0,North,6.9,-,N/A,,Mostly Cloudy,350,2013-03-08 10:53:00
3:53 AM,34.0,30.9,89,30.06,10.0,North,6.9,-,N/A,,Clear,350,2013-03-08 11:53:00
4:53 AM,34.0,30.9,89,30.06,10.0,NW,13.8,-,N/A,,Clear,310,2013-03-08 12:53:00
5:53 AM,33.1,30.0,89,30.07,10.0,NNW,8.1,-,N/A,,Clear,330,2013-03-08 13:53:00
7:53 AM,36.0,30.9,82,30.09,10.0,North,5.8,-,N/A,,Clear,350,2013-03-08 15:53:00
8:53 AM,37.0,32.0,82,30.09,10.0,NW,10.4,-,N/A,,Clear,320,2013-03-08 16:53:00
9:53 AM,39.0,32.0,76,30.11,10.0,North,10.4,-,N/A,,Partly Cloudy,350,2013-03-08 17:53:00
10:53 AM,42.1,35.1,76,30.10,10.0,NNW,8.1,-,N/A,,Clear,340,2013-03-08 18:53:00
11:53 AM,44.1,36.0,73,30.09,10.0,NNW,8.1,-,N/A,,Clear,340,2013-03-08 19:53:00
12:53 PM,46.0,36.0,68,30.08,10.0,NNW,9.2,-,N/A,,Clear,340,2013-03-08 20:53:00
1:53 PM,48.9,34.0,56,30.06,10.0,North,3.5,-,N/A,,Clear,10,2013-03-08 21:53:00
2:53 PM,48.9,33.1,54,30.06,10.0,Variable,3.5,-,N/A,,Clear,0,2013-03-08 22:53:00
3:53 PM,50.0,34.0,54,30.06,10.0,Calm,Calm,-,N/A,,Partly Cloudy,0,2013-03-08 23:53:00
4:53 PM,50.0,33.1,52,30.06,10.0,Calm,Calm,-,N/A,,Clear,0,2013-03-09 00:53:00
5:53 PM,43.0,34.0,71,30.07,10.0,South,5.8,-,N/A,,Clear,170,2013-03-09 01:53:00
6:53 PM,39.9,33.1,77,30.09,10.0,Calm,Calm,-,N/A,,Clear,0,2013-03-09 02:53:00
7:53 PM,39.9,32.0,73,30.11,10.0,Calm,Calm,-,N/A,,Clear,0,2013-03-09 03:53:00
8:53 PM,37.9,32.0,79,30.13,10.0,Calm,Calm,-,N/A,,Clear,0,2013-03-09 04:53:00
9:53 PM,34.0,30.0,85,30.15,10.0,NNE,4.6,-,N/A,,Clear,20,2013-03-09 05:53:00
10:53 PM,35.1,30.9,85,30.15,10.0,North,4.6,-,N/A,,Clear,360,2013-03-09 06:53:00
11:53 PM,37.9,32.0,79,30.17,10.0,North,5.8,-,N/A,,Clear,350,2013-03-09 07:53:00